DLH2WC EDDV-EDDM

Flight info

Callsign DLH2WC
Flight time 0h 52m
Altitude 31000
Route POVEL3H POVEL Z94 GALMA T703 LULAR/N0454F300 T105 LANDU LANDU2B
Aircraft A320/M-SDE3FGHIRWY/LB1

Departure

Time 2026-05-05 17:38
Airport Hannover Airport (EDDV)

Arrival

Time 2026-05-05 18:30
Airport Munich Airport (EDDM)
Time Latitude Longitude Altitude Speed Heading
2026-05-05 17:08 52.45845 9.69448 192 ft 0 kts 41°
2026-05-05 17:28 52.45835 9.69435 192 ft 2 kts 29°
2026-05-05 17:29 52.45821 9.69424 192 ft 2 kts 19°
2026-05-05 17:29 52.45807 9.69419 192 ft 2 kts
2026-05-05 17:29 52.45792 9.69418 192 ft 2 kts 355°
2026-05-05 17:29 52.45778 9.69422 192 ft 2 kts 344°
2026-05-05 17:30 52.45764 9.69431 192 ft 2 kts 332°
2026-05-05 17:30 52.45751 9.69444 192 ft 2 kts 320°
2026-05-05 17:30 52.45741 9.69461 192 ft 2 kts 308°
2026-05-05 17:30 52.45736 9.69471 192 ft 0 kts 307°
2026-05-05 17:32 52.45744 9.69453 191 ft 3 kts 301°
2026-05-05 17:33 52.45755 9.69396 192 ft 7 kts 279°
2026-05-05 17:33 52.45760 9.69295 192 ft 10 kts 273°
2026-05-05 17:33 52.45741 9.69174 191 ft 12 kts 220°
2026-05-05 17:33 52.45655 9.69144 191 ft 12 kts 193°
2026-05-05 17:34 52.45625 9.69014 191 ft 13 kts 274°
2026-05-05 17:34 52.45629 9.68851 191 ft 14 kts 273°
2026-05-05 17:34 52.45634 9.68681 192 ft 15 kts 273°
2026-05-05 17:34 52.45639 9.68503 192 ft 16 kts 273°
2026-05-05 17:35 52.45645 9.68318 191 ft 16 kts 273°
2026-05-05 17:35 52.45650 9.68129 191 ft 17 kts 273°
2026-05-05 17:35 52.45655 9.67934 192 ft 17 kts 272°
2026-05-05 17:35 52.45647 9.67776 191 ft 12 kts 243°
2026-05-05 17:36 52.45605 9.67714 191 ft 0 kts 202°
2026-05-05 17:36 52.45600 9.67710 191 ft 2 kts 200°
2026-05-05 17:36 52.45536 9.67699 191 ft 13 kts 179°
2026-05-05 17:37 52.45495 9.67801 192 ft 12 kts 91°
2026-05-05 17:37 52.45486 9.68148 192 ft 66 kts 92°
2026-05-05 17:37 52.45454 9.69332 192 ft 138 kts 93°
2026-05-05 17:37 52.45394 9.71118 602 ft 163 kts 93°
2026-05-05 17:38 52.45312 9.72920 1465 ft 161 kts 90°
2026-05-05 17:38 52.45258 9.74673 2317 ft 156 kts 88°
2026-05-05 17:38 52.45219 9.76520 2782 ft 170 kts 89°
2026-05-05 17:38 52.45180 9.78513 3223 ft 186 kts 89°
2026-05-05 17:39 52.45129 9.80725 3698 ft 202 kts 90°
2026-05-05 17:39 52.45045 9.83090 4210 ft 217 kts 91°
2026-05-05 17:39 52.44965 9.85601 4866 ft 226 kts 91°
2026-05-05 17:39 52.44881 9.88185 5611 ft 232 kts 92°
2026-05-05 17:40 52.44805 9.90821 6369 ft 236 kts 92°
2026-05-05 17:40 52.44653 9.93503 7117 ft 240 kts 104°
2026-05-05 17:40 52.44022 9.96059 7750 ft 250 kts 118°
2026-05-05 17:40 52.43131 9.98565 8180 ft 268 kts 121°
2026-05-05 17:41 52.42133 10.01260 8648 ft 284 kts 121°
2026-05-05 17:41 52.41103 10.04079 9283 ft 293 kts 121°
2026-05-05 17:41 52.40081 10.06928 10073 ft 295 kts 120°
2026-05-05 17:41 52.39030 10.09901 10524 ft 310 kts 121°
2026-05-05 17:42 52.37935 10.12999 10889 ft 327 kts 121°
2026-05-05 17:42 52.36772 10.16277 11419 ft 337 kts 121°
2026-05-05 17:42 52.35589 10.19591 12083 ft 341 kts 121°
2026-05-05 17:42 52.34398 10.22933 12760 ft 345 kts 121°
2026-05-05 17:43 52.33190 10.26321 13422 ft 348 kts 121°
2026-05-05 17:43 52.31979 10.29718 14061 ft 351 kts 121°
2026-05-05 17:43 52.30742 10.33181 14682 ft 354 kts 121°
2026-05-05 17:43 52.29509 10.36627 15297 ft 357 kts 122°
2026-05-05 17:44 52.28243 10.40160 15891 ft 361 kts 122°
2026-05-05 17:44 52.26982 10.43672 16461 ft 364 kts 122°
2026-05-05 17:44 52.25701 10.47239 17024 ft 367 kts 122°
2026-05-05 17:44 52.24406 10.50837 17566 ft 370 kts 122°
2026-05-05 17:45 52.23115 10.54422 18103 ft 373 kts 122°
2026-05-05 17:45 52.21802 10.58064 18641 ft 376 kts 122°
2026-05-05 17:45 52.20466 10.61762 19156 ft 379 kts 122°
2026-05-05 17:45 52.19144 10.65418 19649 ft 382 kts 123°
2026-05-05 17:46 52.17789 10.69154 20147 ft 384 kts 123°
2026-05-05 17:46 52.16430 10.72899 20623 ft 387 kts 123°
2026-05-05 17:46 52.15054 10.76685 21104 ft 390 kts 123°
2026-05-05 17:46 52.13567 10.80353 21550 ft 390 kts 132°
2026-05-05 17:47 52.11673 10.83449 21992 ft 388 kts 144°
2026-05-05 17:47 52.09441 10.85841 22448 ft 386 kts 154°
2026-05-05 17:47 52.07087 10.87892 22893 ft 388 kts 155°
2026-05-05 17:47 52.04683 10.89933 23326 ft 390 kts 155°
2026-05-05 17:48 52.02294 10.91962 23726 ft 393 kts 155°
2026-05-05 17:48 51.99856 10.94046 24145 ft 395 kts 155°
2026-05-05 17:48 51.97417 10.96141 24562 ft 397 kts 155°
2026-05-05 17:48 51.95002 10.98222 24981 ft 399 kts 155°
2026-05-05 17:49 51.92549 11.00333 25398 ft 401 kts 155°
2026-05-05 17:49 51.90073 11.02463 25803 ft 403 kts 155°
2026-05-05 17:49 51.87608 11.04582 26211 ft 404 kts 155°
2026-05-05 17:49 51.85127 11.06710 26607 ft 406 kts 155°
2026-05-05 17:50 51.82634 11.08845 27008 ft 407 kts 155°
2026-05-05 17:50 51.80168 11.10954 27395 ft 408 kts 155°
2026-05-05 17:50 51.77641 11.13112 27746 ft 410 kts 156°
2026-05-05 17:50 51.75122 11.15262 28115 ft 411 kts 156°
2026-05-05 17:51 51.72607 11.17405 28460 ft 412 kts 156°
2026-05-05 17:51 51.70093 11.19546 28778 ft 414 kts 156°
2026-05-05 17:51 51.67530 11.21724 29107 ft 415 kts 156°
2026-05-05 17:51 51.65004 11.23869 29426 ft 416 kts 156°
2026-05-05 17:52 51.62429 11.26053 29715 ft 418 kts 156°
2026-05-05 17:52 51.59853 11.28232 29989 ft 420 kts 156°
2026-05-05 17:52 51.57279 11.30408 30259 ft 421 kts 156°
2026-05-05 17:52 51.54713 11.32576 30531 ft 423 kts 156°
2026-05-05 17:53 51.52094 11.34789 30753 ft 424 kts 156°
2026-05-05 17:53 51.46918 11.39148 30765 ft 424 kts 156°
2026-05-05 17:54 51.41695 11.43539 31051 ft 426 kts 156°
2026-05-05 17:54 51.39086 11.45725 31334 ft 426 kts 156°
2026-05-05 17:54 51.36473 11.47907 31565 ft 427 kts 156°
2026-05-05 17:54 51.33812 11.50124 31772 ft 428 kts 156°
2026-05-05 17:55 51.31179 11.52315 31975 ft 429 kts 156°
2026-05-05 17:55 51.28543 11.54505 32174 ft 429 kts 156°
2026-05-05 17:55 51.25930 11.56675 32396 ft 429 kts 156°
2026-05-05 17:55 51.23274 11.58877 32601 ft 429 kts 156°
2026-05-05 17:56 51.20625 11.61047 32751 ft 427 kts 157°
2026-05-05 17:56 51.15196 11.64612 32758 ft 423 kts 164°
2026-05-05 17:57 51.09565 11.67017 32752 ft 420 kts 171°
2026-05-05 17:57 51.03814 11.68266 32748 ft 418 kts 178°
2026-05-05 17:58 50.97977 11.68648 32750 ft 418 kts 179°
2026-05-05 17:58 50.92186 11.68997 32754 ft 419 kts 179°
2026-05-05 17:59 50.86378 11.69329 32745 ft 419 kts 179°
2026-05-05 17:59 50.80593 11.69651 32741 ft 419 kts 178°
2026-05-05 18:00 50.74775 11.70233 32744 ft 421 kts 174°
2026-05-05 18:00 50.68984 11.71701 32739 ft 422 kts 169°
2026-05-05 18:01 50.63349 11.74045 32735 ft 423 kts 162°
2026-05-05 18:01 50.57726 11.76959 32743 ft 425 kts 163°
2026-05-05 18:02 50.52153 11.79824 32729 ft 423 kts 162°
2026-05-05 18:02 50.46560 11.82799 32729 ft 425 kts 159°
2026-05-05 18:03 50.41152 11.86372 32741 ft 426 kts 157°
2026-05-05 18:03 50.35702 11.90048 32746 ft 427 kts 157°
2026-05-05 18:04 50.30265 11.93720 32765 ft 428 kts 156°
2026-05-05 18:04 50.24780 11.97412 32763 ft 430 kts 156°
2026-05-05 18:05 50.19279 12.01113 32757 ft 433 kts 156°
2026-05-05 18:05 50.13761 12.04819 32509 ft 433 kts 156°
2026-05-05 18:05 50.11042 12.06640 32216 ft 433 kts 156°
2026-05-05 18:06 50.08262 12.08503 31931 ft 433 kts 156°
2026-05-05 18:06 50.06424 12.09731 31739 ft 433 kts 156°
2026-05-05 18:06 50.02769 12.12170 31374 ft 432 kts 156°
2026-05-05 18:06 49.99989 12.14019 31100 ft 433 kts 156°
2026-05-05 18:07 49.97260 12.15835 30818 ft 431 kts 156°
2026-05-05 18:07 49.94506 12.17661 30541 ft 431 kts 156°
2026-05-05 18:07 49.91755 12.19486 30268 ft 428 kts 156°
2026-05-05 18:07 49.89025 12.21296 30005 ft 427 kts 156°
2026-05-05 18:08 49.86274 12.23025 29717 ft 425 kts 162°
2026-05-05 18:08 49.83400 12.23882 29449 ft 426 kts 174°
2026-05-05 18:08 49.80471 12.24204 29196 ft 423 kts 176°
2026-05-05 18:08 49.77519 12.24481 28914 ft 421 kts 176°
2026-05-05 18:09 49.74630 12.24758 28646 ft 419 kts 175°
2026-05-05 18:09 49.71745 12.25048 28384 ft 417 kts 176°
2026-05-05 18:09 49.68837 12.25350 28116 ft 414 kts 175°
2026-05-05 18:09 49.66009 12.25647 27848 ft 412 kts 175°
2026-05-05 18:10 49.63139 12.25952 27565 ft 410 kts 175°
2026-05-05 18:10 49.60298 12.26257 27114 ft 409 kts 175°
2026-05-05 18:10 49.57471 12.26564 26565 ft 405 kts 176°
2026-05-05 18:10 49.54688 12.26867 26014 ft 400 kts 176°
2026-05-05 18:11 49.51966 12.27160 25468 ft 396 kts 176°
2026-05-05 18:11 49.49210 12.27459 24911 ft 393 kts 176°
2026-05-05 18:11 49.46520 12.27750 24367 ft 391 kts 176°
2026-05-05 18:11 49.43816 12.28043 23820 ft 388 kts 176°
2026-05-05 18:12 49.41156 12.28333 23284 ft 385 kts 177°
2026-05-05 18:12 49.38505 12.28619 22749 ft 382 kts 177°
2026-05-05 18:12 49.35862 12.28904 22210 ft 379 kts 177°
2026-05-05 18:12 49.33245 12.29185 21676 ft 376 kts 177°
2026-05-05 18:13 49.30657 12.29464 21147 ft 374 kts 177°
2026-05-05 18:13 49.28086 12.29740 20619 ft 372 kts 177°
2026-05-05 18:13 49.25522 12.30015 20090 ft 370 kts 177°
2026-05-05 18:13 49.22970 12.30288 19561 ft 367 kts 177°
2026-05-05 18:14 49.20457 12.30558 19046 ft 365 kts 177°
2026-05-05 18:14 49.17919 12.30831 18516 ft 363 kts 177°
2026-05-05 18:14 49.15451 12.31095 17999 ft 361 kts 177°
2026-05-05 18:14 49.12929 12.31367 17477 ft 359 kts 178°
2026-05-05 18:15 49.10479 12.31628 16967 ft 357 kts 178°
2026-05-05 18:15 49.08019 12.31891 16453 ft 356 kts 178°
2026-05-05 18:15 49.05558 12.32151 15935 ft 354 kts 178°
2026-05-05 18:15 49.03106 12.32410 15416 ft 353 kts 178°
2026-05-05 18:16 49.00671 12.32669 14903 ft 352 kts 178°
2026-05-05 18:16 48.98228 12.32929 14386 ft 350 kts 178°
2026-05-05 18:16 48.95804 12.33188 13867 ft 349 kts 178°
2026-05-05 18:16 48.93396 12.33444 13348 ft 347 kts 178°
2026-05-05 18:17 48.91021 12.33696 12836 ft 345 kts 178°
2026-05-05 18:17 48.88618 12.33801 12320 ft 342 kts 182°
2026-05-05 18:17 48.86245 12.33692 11800 ft 340 kts 184°
2026-05-05 18:17 48.83897 12.33540 11282 ft 338 kts 184°
2026-05-05 18:18 48.81569 12.33386 10867 ft 332 kts 184°
2026-05-05 18:18 48.79308 12.33239 10764 ft 323 kts 184°
2026-05-05 18:18 48.77090 12.33092 10578 ft 321 kts 184°
2026-05-05 18:18 48.74919 12.32956 10156 ft 304 kts 184°
2026-05-05 18:19 48.72864 12.32842 9800 ft 287 kts 184°
2026-05-05 18:19 48.70890 12.32743 9511 ft 281 kts 184°
2026-05-05 18:19 48.68949 12.32643 9237 ft 279 kts 184°
2026-05-05 18:19 48.67011 12.32541 8980 ft 279 kts 184°
2026-05-05 18:20 48.65094 12.32442 8746 ft 278 kts 184°
2026-05-05 18:20 48.63156 12.32344 8525 ft 278 kts 184°
2026-05-05 18:20 48.61235 12.32265 8302 ft 277 kts 184°
2026-05-05 18:20 48.59319 12.32196 8076 ft 276 kts 184°
2026-05-05 18:21 48.57378 12.32127 7856 ft 277 kts 184°
2026-05-05 18:21 48.55472 12.32071 7631 ft 277 kts 184°
2026-05-05 18:21 48.53552 12.32011 7407 ft 276 kts 186°
2026-05-05 18:21 48.51696 12.31474 7188 ft 270 kts 201°
2026-05-05 18:22 48.49929 12.30549 7004 ft 269 kts 204°
2026-05-05 18:22 48.48158 12.29543 6803 ft 269 kts 204°
2026-05-05 18:22 48.46414 12.28544 6604 ft 269 kts 204°
2026-05-05 18:22 48.44677 12.27553 6407 ft 269 kts 204°
2026-05-05 18:23 48.42937 12.26563 6206 ft 266 kts 206°
2026-05-05 18:23 48.41419 12.25155 6003 ft 252 kts 227°
2026-05-05 18:23 48.40249 12.23242 5853 ft 242 kts 233°
2026-05-05 18:23 48.39203 12.21352 5719 ft 233 kts 234°
2026-05-05 18:24 48.38250 12.19434 5588 ft 223 kts 243°
2026-05-05 18:24 48.37551 12.17395 5460 ft 217 kts 251°
2026-05-05 18:24 48.37130 12.15271 5332 ft 207 kts 261°
2026-05-05 18:24 48.36942 12.13132 5210 ft 206 kts 267°
2026-05-05 18:25 48.36832 12.10990 5083 ft 206 kts 267°
2026-05-05 18:25 48.36753 12.09572 5004 ft 206 kts 267°
2026-05-05 18:25 48.36566 12.06805 4853 ft 196 kts 266°
2026-05-05 18:25 48.36409 12.04767 4596 ft 194 kts 265°
2026-05-05 18:26 48.36251 12.02807 4415 ft 184 kts 265°
2026-05-05 18:26 48.36099 12.00952 4169 ft 179 kts 266°
2026-05-05 18:26 48.35949 11.99121 3901 ft 174 kts 266°
2026-05-05 18:26 48.35804 11.97330 3651 ft 170 kts 266°
2026-05-05 18:27 48.35663 11.95591 3419 ft 164 kts 267°
2026-05-05 18:27 48.35530 11.93943 3193 ft 154 kts 267°
2026-05-05 18:27 48.35405 11.92366 2993 ft 150 kts 267°
2026-05-05 18:27 48.35284 11.90809 2841 ft 152 kts 267°
2026-05-05 18:28 48.35041 11.87717 2435 ft 143 kts 266°
2026-05-05 18:28 48.34925 11.86260 2250 ft 140 kts 266°
2026-05-05 18:28 48.34814 11.84811 2068 ft 139 kts 266°
2026-05-05 18:29 48.34703 11.83381 1882 ft 138 kts 266°
2026-05-05 18:29 48.34596 11.81945 1703 ft 138 kts 266°
2026-05-05 18:29 48.34485 11.80512 1521 ft 137 kts 265°
2026-05-05 18:29 48.34383 11.79183 1478 ft 111 kts 262°
2026-05-05 18:30 48.34312 11.78291 1482 ft 55 kts 263°
2026-05-05 18:30 48.34338 11.77920 1484 ft 30 kts 290°
2026-05-05 18:30 48.34405 11.77679 1484 ft 24 kts 294°
2026-05-05 18:30 48.34441 11.77553 1484 ft 10 kts 294°
2026-05-05 18:31 48.34445 11.77542 1484 ft 0 kts 294°
2026-05-05 18:31 48.34460 11.77498 1484 ft 10 kts 305°
2026-05-05 18:31 48.34555 11.77432 1484 ft 17 kts 353°
2026-05-05 18:31 48.34635 11.77524 1483 ft 17 kts 85°
2026-05-05 18:32 48.34649 11.77712 1483 ft 18 kts 83°
2026-05-05 18:32 48.34665 11.77915 1482 ft 20 kts 83°
2026-05-05 18:32 48.34681 11.78132 1481 ft 21 kts 83°
2026-05-05 18:32 48.34698 11.78359 1481 ft 22 kts 83°
2026-05-05 18:33 48.34718 11.78601 1480 ft 23 kts 83°
2026-05-05 18:33 48.34737 11.78854 1479 ft 25 kts 83°
2026-05-05 18:33 48.34757 11.79118 1478 ft 26 kts 84°
2026-05-05 18:33 48.34777 11.79388 1477 ft 22 kts 84°
2026-05-05 18:34 48.34811 11.79550 1476 ft 12 kts 27°
2026-05-05 18:34 48.34880 11.79552 1476 ft 10 kts 353°
2026-05-05 18:34 48.34958 11.79538 1475 ft 12 kts 353°
2026-05-05 18:34 48.34985 11.79527 1475 ft 3 kts 307°
2026-05-05 18:35 48.35013 11.79475 1475 ft 8 kts 310°
2026-05-05 18:35 48.35020 11.79388 1476 ft 6 kts 264°
2026-05-05 18:35 48.35018 11.79369 1476 ft 0 kts 264°